Regional Weather Roundup
Issued by NWS

Home | Current Version | Previous Version | Graphics & Text | Print | Product List | Glossary On
Versions: 1 2 3 4 5 6 7 8 9 10 11 12 13 14 15 16 17 18 19 20 21 22 23 24 25 26 27 28 29 30 31 32 33 34 35 36 37 38 39 40 41 42 43 44 45 46 47 48 49 50
623
ASUS45 KTFX 290310
RWRMT
MONTANA REGIONAL WEATHER ROUNDUP
NATIONAL WEATHER SERVICE GREAT FALLS MT
900 PM MDT TUE MAR 28 2017

NOTE: "FAIR" INDICATES FEW OR NO CLOUDS BELOW 12000 FEET WITH NO
SIGNIFICANT WEATHER AND/OR OBSTRUCTIONS TO VISIBILITY.

MTZ001>007-043-290400-
WEST OF THE DIVIDE

CITY           SKY/WX    TMP DP  RH WIND       PRES   REMARKS
KALISPELL      CLOUDY    43  31  62 S7        30.15R
MISSOULA       CLOUDY    44  30  57 N5        30.20S
BUTTE          CLOUDY    39  20  46 W6        30.15R
MULLAN PASS    LGT SNOW  28  28 100 SW7G20    30.13S FOG     WCI  21
ANACONDA         N/A     41  21  45 W15       30.14R
DEER LODGE       N/A     39  25  56 SW3       30.18R
EUREKA           N/A     45  30  57 SE6       30.14S
HAMILTON         N/A     46  27  46 CALM      30.19S
RONAN            N/A     45  34  65 E5        30.21S
$$

MTZ008-052>055-290400-
SOUTHWEST MONTANA

CITY           SKY/WX    TMP DP  RH WIND       PRES   REMARKS
BOZEMAN        CLOUDY    44  25  47 S6        30.11R
DILLON         CLOUDY    40  21  46 S9        30.13R
W YELLOWSTONE  CLEAR     32  18  55 SW6       30.17S WCI  26
ENNIS          CLEAR     39  21  48 SE8       30.17R
THREE FORKS      N/A     45  45 100 NW5       30.09R
$$

MTZ009-010-012-014-046-048-049-054-290400-
EAST SLOPES AND CENTRAL MONTANA

CITY           SKY/WX    TMP DP  RH WIND       PRES   REMARKS
CUT BANK       CLOUDY    41  25  53 SW22      30.01S
GREAT FALLS    CLOUDY    42  22  44 SW10      30.06R
MALMSTROM AFB  CLOUDY    44  24  45 SW18      30.07R
HELENA         PTCLDY    46  24  42 CALM      30.12R
AUGUSTA        MOCLDY    41  24  50 W13       30.05S
BOWMANS CRNR   MOCLDY    40  23  50 SW15      30.05F
CHOTEAU          N/A     43  23  45 W7G13     30.06S
CONRAD           N/A     41  32  70 SW6       30.05S
FAIRFIELD      MOCLDY    43  24  46 SW13      30.05S
POWER          MOCLDY    42  23  47 SW13      30.05R
RAYNESFORD     MOCLDY    43  22  44 W16       30.07S
$$

MTZ011-013-016-021-045-047-050-051-290400-
NORTH CENTRAL MONTANA

CITY           SKY/WX    TMP DP  RH WIND       PRES   REMARKS
HAVRE          CLOUDY    42  27  55 SW8       30.01R
LEWISTOWN      CLOUDY    38  21  50 CALM      30.07R
N BAR RANCH      N/A     36  21  55 SW6       30.10R WCI  31
CHINOOK          N/A     46  23  39 SW8       30.01R
DENTON         MOCLDY    43  22  43 SE6       30.03R
FORT BENTON      N/A     46  23  39 MISG      30.06R
GEYSER         MOCLDY    40  23  51 SW8       30.06R
GRASS RANGE      N/A     38  24  57 SW3       30.04R
JUDITH GAP       N/A     37  21  52 CALM      30.08R
STANFORD       MOCLDY    38  22  52 W5        30.07R
WINIFRED         N/A     42  22  44 SW5       30.06R
$$

MTZ017>020-022>027-061-062-290400-
NORTHEAST MONTANA

CITY           SKY/WX    TMP DP  RH WIND       PRES   REMARKS
GLASGOW        CLOUDY    44  29  55 S8        30.04R
JORDAN           N/A     43  33  68 CALM      30.06R
SIDNEY         CLOUDY    38  38 100 CALM      30.12R FOG
WOLF POINT     CLEAR     47  38  71 S6        30.07R
MALTA          CLEAR     41  30  65 CALM      30.03S
PLENTYWOOD       N/A     39  37  93 CALM      30.08S
POPLAR           N/A     43  37  81 SE7       30.08S
SCOBEY           N/A     42  31  65 SE2       30.04R
$$

MTZ028>42-056>058-290400-
SOUTHCENTRAL AND SOUTHEAST MONTANA

CITY           SKY/WX    TMP DP  RH WIND       PRES   REMARKS
BAKER          CLOUDY    46  38  73 E6        30.12R
BILLINGS       PTCLDY    47  35  63 S7        30.08R
LIVINGSTON     CLEAR     39  24  55 S9        30.09R
MILES CITY     CLEAR     47  33  58 S5        30.10R
BIG TIMBER     CLEAR     41  23  48 W9        30.11R
EKALAKA          N/A     45  36  70 NE2       30.09R
FORSYTH          N/A     45  37  76 SE7       30.10R
HARLOWTON        N/A     40  20  45 NW5       30.08R
LAUREL           N/A     43  21  41 CALM      30.07F
$$

REGIONAL REPORTS...DAKOTAS

CITY           SKY/WX    TMP DP  RH WIND       PRES   REMARKS
WILLISTON      CLOUDY    37  36  96 W3        30.10R FOG
MINOT          CLOUDY    48  40  73 E9        30.11R
DICKINSON      CLOUDY    41  39  93 CALM      30.10S
BEACH          CLOUDY    45  41  87 SE5       30.16R
TIOGA          CLOUDY    43  45 100 SE9       30.11S FOG
WATFORD CITY   MIX PCPN  43  43 100 CALM      30.09R
BISMARCK       CLOUDY    47  38  71 SE8       30.15R
GRAND FORKS    CLOUDY    39  38  96 NW5       30.21S
FARGO          CLOUDY    45  39  79 N6        30.20R
BUFFALO SD       N/A     45  42  89 SE13      30.06R
RAPID CITY     LGT RAIN  43  41  93 SE12      30.13R
$$

REGIONAL REPORTS...WYOMING/IDAHO/WASHINGTON

CITY           SKY/WX    TMP DP  RH WIND       PRES   REMARKS
GILLETTE       CLOUDY    42  37  82 W7        30.12S
SHERIDAN       CLEAR     35  32  88 S6        30.13R WCI  30
BUFFALO WY     MOCLDY    41  33  73 CALM      30.15R
CODY           CLEAR     42  26  53 CALM      30.13R
YELLOWSTONE LA   N/A     26  17  68 CALM      30.20R
IDAHO FALLS    CLOUDY    44  29  55 S13       30.20R
SALMON         CLOUDY    46  23  39 CALM      30.15S
BOISE          PTCLDY    49  30  48 N3        30.25S
SPOKANE        MOCLDY    43  39  86 S6        30.19R
$$

REGIONAL REPORTS...ALBERTA

CITY           SKY/WX    TMP DP  RH WIND       PRES   REMARKS
EDMONTON       MOCLDY    36  34  93 NE5       29.83R
CALGARY        PTCLDY    46  19  34 W13       29.85R
LETHBRIDGE     MOCLDY    45  25  45 W22       29.94R
MEDICINE HAT   MOCLDY    46  27  46 SW13      29.93R
WATERTON GATE    N/A     39  25  56 SW23G35     N/A  WCI  29
CARDSTON         N/A     43  23  45 W12G17      N/A
MILK RIVER       N/A     43  27  52 W12G17      N/A
ONEFOUR          N/A     45  27  49 W14         N/A
$$

REGIONAL REPORTS...SASKATCHEWAN

CITY           SKY/WX    TMP DP  RH WIND       PRES   REMARKS
SWIFT CURRENT  MOCLDY    41  27  56 S12       29.95R
REGINA         CLOUDY    36  36 100 SE18G25   30.05S FOG     WCI  25
SASKATOON      PTCLDY    41  36  81 SE12G21   29.97S
CYPRESS HILLS    N/A     41  21  45 W8          N/A
ASSINIBOIA       N/A     36  34  93 NE3         N/A
$$




USA.gov is the U.S. government's official web portal to all federal, state and local government web resources and services.